Home   Weather   Shreveport   Past weeks
Flag for USA

Past Weather in Shreveport, Louisiana, USA — Yesterday and Last 2 Weeks

Now
79 °F

Overcast.


Feels Like: 83 °F
Forecast: 78 / 68 °F
Wind: 9 mph from Southwest

Location: Shreveport Regional Airport

Current Time: Oct 15, 2019 at 1:33:45 pm

Latest Report: Oct 15, 2019 at 12:56 pm


Visibility: 10 mi

Pressure: 29.89 "Hg

Humidity: 88%

Dew Point: 75 °F

Location of ShreveportLocation

Past Weather in Shreveport — Graph

°F

Shreveport Temperature Yesterday

Maximum temperature yesterday: 73 °F (at 1:56 pm)
Minimum temperature yesterday: 56 °F (at 5:56 am)
Average temperature yesterday: 65 °F

High & Low Weather Summary for the Past Weeks

 TemperatureHumidityPressure
High96 °F (Oct 2, 3:56 pm)100% (Oct 15, 4:56 am)30.26 "Hg (Oct 15, 4:56 am)
Low45 °F (Oct 12, 5:56 am)31% (Oct 12, 3:56 pm)29.81 "Hg (Oct 10, 5:56 pm)
Average72 °F74%30.01 "Hg
* Reported Sep 30 12:56 pm — Oct 15 12:09 pm, Shreveport. Weather by CustomWeather, © 2019

Note: Actual official high and low records may vary slightly from our data, if they occured in-between our weather recording intervals... More about our weather records

Advertising

Shreveport Weather History for the Previous 24 Hours

Scroll right to see more
 ConditionsComfort  
Time TempWeatherWind HumidityBarometerVisibility
12:09 pm
Tue, Oct 15
76 °FOvercast.8 mph97%29.92 "Hg10 mi
11:56 am76 °FLow clouds.7 mph94%29.91 "Hg10 mi
10:56 am74 °FFog.6 mph100%29.93 "Hg6 mi
10:09 am73 °FFog.5 mph100%29.94 "Hg3 mi
9:56 am73 °FFog.3 mph97%29.94 "Hg2 mi
8:56 am72 °FFog.3 mph97%29.93 "Hg2 mi
8:37 am71 °FLight rain. Fog.3 mph100%29.93 "Hg1 mi
7:56 am71 °FFog.3 mph96%29.92 "Hg0 mi
7:24 am70 °FFog.5 mph100%29.93 "Hg0 mi
6:56 am70 °FFog.3 mph100%29.93 "Hg1 mi
6:41 am70 °FLow clouds.3 mph100%29.93 "Hg1 mi
5:56 am70 °FFog.7 mph97%29.91 "Hg6 mi
5:28 am70 °FLight rain. Mostly cloudy.8 mph97%29.92 "Hg7 mi
4:56 am69 °FLight rain. Low clouds.12 mph100%29.91 "Hg7 mi
3:56 am69 °FLow clouds.8 mph96%29.92 "Hg9 mi
2:56 am69 °FLow clouds.9 mph96%29.94 "Hg10 mi
1:56 am68 °FLow clouds.9 mph96%29.95 "Hg10 mi
12:56 am68 °FMostly cloudy.10 mph96%29.96 "Hg10 mi
11:56 pm
Mon, Oct 14
68 °FMostly cloudy.7 mph96%29.97 "Hg10 mi
10:56 pm68 °FLow clouds.9 mph96%29.99 "Hg10 mi
9:56 pm68 °FFog.6 mph96%30.00 "Hg6 mi
8:56 pm68 °FLight rain. Fog.6 mph96%30.01 "Hg4 mi
8:24 pm68 °FLight rain. Fog.7 mph96%30.01 "Hg4 mi
8:14 pm68 °FLight rain. Fog.8 mph96%30.00 "Hg4 mi
8:06 pm68 °FLight rain. Fog.6 mph96%30.01 "Hg4 mi
6:56 pm68 °FLight rain. Fog.5 mph96%30.00 "Hg2 mi
5:56 pm68 °FLight rain. Fog.8 mph96%29.99 "Hg2 mi
5:03 pm68 °FLight rain. Fog.5 mph93%30.00 "Hg2 mi
4:56 pm68 °FLight rain. Fog.7 mph93%29.99 "Hg2 mi
4:37 pm68 °FRain. Fog.8 mph93%30.00 "Hg2 mi
3:56 pm69 °FLight rain. Fog.No wind90%30.00 "Hg5 mi
2:56 pm70 °FRain. Fog.7 mph87%29.99 "Hg6 mi
2:29 pm71 °FLight rain. Cloudy.8 mph78%29.99 "Hg10 mi
1:56 pm73 °FMostly cloudy.6 mph71%30.01 "Hg10 mi
Weather by CustomWeather, © 2019

See weather overview